• Join FlightAware (Why Join?)
  • Login
  • US Flag 
06:12AM EDT


 

Airport Tracker/Info


-or-


 

Live Flight TrackerFlight Track Log ✈ ASA614 ✈ 22-Jun-2013 ✈ KSEA - KLAS

Flight Track Log - Related Links

Times and Time Zones

All times are in EDT time to prevent confusion due to time zone crossing. See the ASA614 flight status page for this flight to view local times or setup timezone preferences in your user account.

Time Position Orientation Groundspeed Altitude Reporting Facility
EDT Latitude Longitude Course Direction KTS MPH feet Rate Location/Type
02:25PM 47.4708 -122.3106 360° North 170 196 1,100  Level Seattle Center
02:27PM 47.5467 -122.3111 360° North 232 267 3,600 2,220 Climbing Seattle Center
02:28PM 47.6103 -122.2728 22° Northeast 272 313 6,400 2,400 Climbing Seattle Center
02:29PM 47.6003 -122.1633 98° East 285 328 8,600 1,920 Climbing Seattle Center
02:30PM 47.4936 -122.1375 171° South 307 353 11,000 1,740 Climbing Seattle Center
02:31PM 47.3928 -122.1189 173° South 364 419 12,800 2,040 Climbing Seattle Center
02:32PM 47.2842 -122.1006 173° South 390 449 15,200 2,400 Climbing Seattle Center
02:33PM 47.1617 -122.0789 173° South 411 473 17,700 2,040 Climbing Seattle Center
02:34PM 47.0575 -122.0644 175° South 423 487 19,400 1,800 Climbing Seattle Center
02:35PM 46.9350 -122.0417 173° South 445 512 21,400 2,100 Climbing Seattle Center
02:36PM 46.7872 -121.9833 165° South 462 532 23,800 1,920 Climbing Seattle Center
02:37PM 46.6611 -121.9364 166° South 471 542 25,400 1,440 Climbing Seattle Center
02:38PM 46.5311 -121.8886 166° South 484 557 26,800 1,380 Climbing Seattle Center
02:39PM 46.3997 -121.8394 166° South 493 567 28,300 1,620 Climbing Seattle Center
02:40PM 46.2681 -121.7928 166° South 492 566 30,100 1,560 Climbing Seattle Center
02:41PM 46.1419 -121.7461 166° South 489 563 31,600 1,380 Climbing Seattle Center
02:42PM 46.0103 -121.6989 166° South 488 562 33,000 1,380 Climbing Seattle Center
02:43PM 45.8544 -121.6400 165° South 486 559 34,500 1,320 Climbing Seattle Center
02:44PM 45.7236 -121.5942 166° South 485 558 35,700 1,140 Climbing Seattle Center
02:45PM 45.5928 -121.5497 167° South 486 559 36,900 600 Climbing Seattle Center
02:46PM 45.4661 -121.5044 166° South 474 545 37,000  Climbing Seattle Center
02:47PM 45.3386 -121.4581 166° South 475 547 37,000  Level Seattle Center
02:48PM 45.2100 -121.4122 166° South 477 549 37,000  Level Seattle Center
02:49PM 45.0825 -121.3675 166° South 476 548 37,000  Level Seattle Center
02:50PM 44.9550 -121.3242 166° South 475 547 37,000  Level Seattle Center
02:51PM 44.8014 -121.2708 166° South 476 548 37,000  Level Seattle Center
02:52PM 44.6758 -121.2278 166° South 470 541 37,000  Level Seattle Center
02:54PM 44.5561 -121.1869 166° South 470 541 37,000  Level Seattle Center
02:55PM 44.4294 -121.1439 166° South 468 539 37,000  Level Seattle Center
02:56PM 44.2975 -121.0989 166° South 468 539 37,000  Level Seattle Center
02:57PM 44.1697 -121.0544 166° South 473 544 37,000  Level Seattle Center
02:58PM 44.0467 -120.9903 159° South 480 552 37,000  Level Seattle Center
02:59PM 43.9008 -120.9006 156° South 479 551 37,000  Level Seattle Center
03:00PM 43.7794 -120.8247 156° South 480 552 37,000  Level Seattle Center
03:01PM 43.6569 -120.7483 156° South 484 557 37,000  Level Seattle Center
03:02PM 43.5444 -120.6797 156° South 487 560 37,000  Level Seattle Center
03:03PM 43.3936 -120.5883 156° South 492 566 37,000  Level Seattle Center
03:04PM 43.2681 -120.5128 156° South 493 567 37,000  Level Seattle Center
03:05PM 43.1439 -120.4367 156° South 490 564 37,000  Level Seattle Center
03:06PM 43.0186 -120.3606 156° South 492 566 37,000  Level Seattle Center
03:07PM 42.8939 -120.2861 156° South 490 564 37,000  Level Seattle Center
03:08PM 42.7692 -120.2125 157° South 488 562 37,000  Level Seattle Center
03:09PM 42.6467 -120.1375 156° South 486 559 37,000  Level Seattle Center
03:10PM 42.5208 -120.0622 156° South 493 567 37,000  Level Seattle Center
03:11PM 42.3969 -119.9892 156° South 487 560 37,000  Level Seattle Center
03:12PM 42.2717 -119.9156 156° South 491 565 37,000  Level Seattle Center
03:13PM 42.1453 -119.8414 156° South 495 570 37,000  Level Seattle Center
03:14PM 42.0200 -119.7683 157° South 491 565 37,000  Level Seattle Center
03:15PM 41.8686 -119.6789 156° South 495 570 37,000  Level Seattle Center
03:16PM 41.7414 -119.6075 157° South 496 571 37,000  Level Seattle Center
03:17PM 41.6164 -119.5339 156° South 492 566 37,000  Level Seattle Center
03:19PM 41.4158 -119.4192 157° South 491 565 37,000  Level Seattle Center
03:20PM 41.2903 -119.3467 157° South 492 566 37,000  Level Seattle Center
03:21PM 41.1700 -119.2767 156° South 493 567 37,000  Level Seattle Center
03:22PM 41.0289 -119.1978 157° South 493 567 37,000  Level Seattle Center
03:23PM 40.9075 -119.1303 157° South 494 568 37,000  Level Seattle Center
03:24PM 40.7803 -119.0600 157° South 495 570 37,000  Level Seattle Center
03:25PM 40.6542 -118.9892 157° South 494 568 37,000  Level Seattle Center
03:26PM 40.5031 -118.9019 156° South 494 568 37,000  Level Oakland Center
03:27PM 40.3767 -118.8317 157° South 492 566 37,000  Level Oakland Center
03:28PM 40.2511 -118.7628 157° South 491 565 37,000  Level Oakland Center
03:29PM 40.1253 -118.6939 157° South 490 564 37,000  Level Oakland Center
03:30PM 39.9997 -118.6258 157° South 488 562 37,000  Level Oakland Center
03:31PM 39.8728 -118.5569 157° South 491 565 37,000  Level Oakland Center
03:32PM 39.7472 -118.4883 157° South 488 562 37,000  Level Oakland Center
03:33PM 39.6203 -118.4197 157° South 488 562 37,000  Level Oakland Center
03:34PM 39.4917 -118.3511 158° South 491 565 37,000  Level Oakland Center
03:35PM 39.3642 -118.2825 157° South 490 564 37,000  Level Oakland Center
03:36PM 39.2375 -118.2158 158° South 488 562 37,000  Level Oakland Center
03:37PM 39.0853 -118.1344 157° South 490 564 37,000  Level Oakland Center
03:38PM 38.9594 -118.0683 158° South 486 559 37,000 -420 Level Oakland Center
03:39PM 38.8339 -118.0025 158° South 486 559 36,200 -1,080 Descending Oakland Center
03:40PM 38.7086 -117.9361 158° South 485 558 34,800 -1,440 Descending Oakland Center
03:41PM 38.5792 -117.8675 157° South 484 557 33,300 -900 Descending Oakland Center
03:42PM 38.4522 -117.8022 158° South 490 564 33,000 -120 Descending Oakland Center
03:44PM 38.2503 -117.6967 158° South 493 567 33,000  Level Los Angeles Center
03:45PM 38.1222 -117.6306 158° South 498 573 33,000  Level Los Angeles Center
03:46PM 37.9950 -117.5650 158° South 500 575 33,000  Level Los Angeles Center
03:47PM 37.8425 -117.4872 158° South 499 574 33,000  Level Los Angeles Center
03:48PM 37.7169 -117.4228 158° South 494 568 33,000  Level Los Angeles Center
03:49PM 37.5903 -117.3589 158° South 493 567 33,000  Level Los Angeles Center
03:50PM 37.4644 -117.2953 158° South 489 563 33,000  Level Los Angeles Center
03:51PM 37.3481 -117.2075 149° Southeast 488 562 33,000  Level Los Angeles Center
03:52PM 37.2106 -117.0922 146° Southeast 494 568 33,000 -480 Level Los Angeles Center
03:53PM 37.0978 -116.9953 146° Southeast 492 566 32,100 -960 Descending Los Angeles Center
03:54PM 36.9839 -116.8994 146° Southeast 494 568 31,100 -1,020 Descending Los Angeles Center
03:55PM 36.8700 -116.8058 147° Southeast 491 565 30,100 -780 Descending Los Angeles Center
03:56PM 36.7678 -116.7047 142° Southeast 476 548 29,500 -1,020 Descending Los Angeles Center
03:57PM 36.6853 -116.5819 130° Southeast 463 533 28,000 -2,280 Descending Los Angeles Center
03:58PM 36.5858 -116.4403 131° Southeast 455 524 24,900 -2,820 Descending Los Angeles Center
03:59PM 36.5069 -116.3294 132° Southeast 436 502 22,200 -2,160 Descending Los Angeles Center
04:00PM 36.4250 -116.2119 131° Southeast 419 482 20,500 -1,620 Descending Los Angeles Center
04:01PM 36.3469 -116.1078 133° Southeast 422 486 19,000 -1,800 Descending Los Angeles Center
04:02PM 36.2975 -116.0358 130° Southeast 397 457 17,500 -1,800 Descending Los Angeles Center
04:03PM 36.2311 -115.9453 132° Southeast 387 445 16,100 -1,080 Descending Los Angeles Center
04:03PM 36.2006 -115.9017 131° Southeast 374 430 16,000 -120 Descending Los Angeles Center
04:05PM 36.1694 -115.8025 111° Southeast 308 354 16,000 -360 Level Los Angeles Center
04:05PM 36.1528 -115.7575 115° Southeast 290 334 15,500 -1,200 Descending Los Angeles Center
04:06PM 36.1247 -115.6656 111° Southeast 286 329 14,200 -1,200 Descending Los Angeles Center
04:07PM 36.1081 -115.6161 113° Southeast 285 328 13,700 -1,080 Descending Los Angeles Center
04:07PM 36.0925 -115.5644 110° East 277 319 13,000 -1,200 Descending Los Angeles Center
04:08PM 36.0714 -115.4967 111° Southeast 269 310 12,100 -1,200 Descending Los Angeles Center
04:09PM 36.0547 -115.4475 113° Southeast 266 306 11,200 -960 Descending Los Angeles Center
04:09PM 36.0369 -115.3964 113° Southeast 263 303 11,000 -300 Descending Los Angeles Center
04:10PM 36.0292 -115.3639 106° East 262 302 10,900 -900 Descending Los Angeles Center
04:10PM 36.0261 -115.3069 94° East 263 303 10,100 -1,500 Descending Los Angeles Center
04:11PM 36.0214 -115.2561 97° East 265 305 9,400 -960 Descending Los Angeles Center
04:12PM 36.0161 -115.1694 94° East 259 298 8,600 -720 Descending Los Angeles Center
04:13PM 36.0108 -115.0861 94° East 250 288 8,000 -660 Descending Los Angeles Center
04:14PM 36.0058 -115.0192 95° East 211 243 7,300 -960 Descending Los Angeles Center
04:15PM 36.0033 -114.9533 93° East 198 228 6,100 -900 Descending Los Angeles Center
04:16PM 36.0500 -114.9211 29° Northeast 202 232 5,500 -960 Descending Los Angeles Center
04:17PM 36.0719 -114.9767 296° West 191 220 4,200 -1,080 Descending Los Angeles Center
04:18PM 36.0753 -115.0431 274° West 192 221 3,300 -900 Descending Los Angeles Center
04:19PM 36.0747 -115.1006 269° West 182 209 2,400 -600 Descending Los Angeles Center
04:20PM 36.0747 -115.1481 270° West 155 178 2,100 -300 Descending Los Angeles Center
04:22PM 36.0667 -115.1500 270° West  Level FlightAware Approximate